星链-11179 (STARLINK-11179)

导读 | 星芒AI

STARLINK-11179 是 SpaceX 星链计划中的一颗低轨通信卫星,属于第 26 批发射的星链卫星群。该卫星于 2022 年 10 月 由猎鹰 9 号火箭送入近地轨道,旨在为全球提供高速互联网服务。它采用先进的星间激光通信技术,具备高带宽和低延迟特性,支持偏远地区网络接入。星链计划目标为数千颗卫星构建全球覆盖网络,提升全球互联网普及率。STARLINK-11179 的运行有助于增强星链系统的稳定性和服务范围。

基本信息
目录编号:
60190
目录名称:
STARLINK-11179
国际标识:
2024-124H
轨道中心:
EARTH
卫星名称:
星链-11179 (STARLINK-11179)
卫星全名:
星链-11179 (STARLINK-11179)
卫星状态:
在轨 (已飞行483 天)
发射日期:
2024-07-03 UTC
国别 :
美国 (US)
星等 :
--
轨道信息
数据来源 国际轨道数据
星历时间: 2025-10-28T05:28:51+0800
1天前
查看轨道信息
半长轴: 6737.874km
偏心率: 0.0000972
轨道倾角: 53.158°
近地点辐角 93.152°
升交点赤经 96.145°
平近点角 266.961°
近地点: 359.084km
远地点: 360.394km
周期: 91.737分钟
每日圈数: 15.697065
详细信息
卫星平台:
Starlink v2.0 mini
运营商:
太空探索技术公司
运营商所在国:
美国
制造商(研发单位):
太空探索技术公司
制造商所在国:
美国
使用方式:
暂无
卫星简介
星链(Starlink)计划是由太空探索技术公司(SpaceX)提出的一个巨型低轨卫星互联网星座项目,计划在2019年至2024年间在太空搭建由约1.2万颗卫星组成的“星链”网络,其中1584颗将部署在地球上空550千米处的近地轨道,并从2020年开始工作。该卫星仍在工作。
2D轨道图
3D轨道图
轨道高度分析图
轨道倾角分析图
轨道综合分析图
查看轨道综合分析图